Regional Weather Roundup
Issued by NWS Charleston, SC

Current Version | Previous Version | Graphics & Text | Print | Product List | Glossary On
Versions: 1 2 3 4 5 6 7 8 9 10 11 12 13 14 15 16 17 18 19 20 21 22 23 24 25 26 27 28 29 30 31 32 33 34 35 36 37 38 39 40 41 42 43 44 45 46 47 48 49 50
000 ASUS42 KCHS 260013 RWRCHS REGIONAL WEATHER ROUNDUP NATIONAL WEATHER SERVICE CHARLESTON SC 800 PM EDT WED MAY 25 2016 NOTE: "FAIR" INDICATES FEW OR NO CLOUDS BELOW 12,000 FEET WITH NO SIGNIFICANT WEATHER AND/OR OBSTRUCTIONS TO VISIBILITY. NOT ALL STATIONS ARE QUALITY CONTROLLED. USE DATA WITH CAUTION... ESPECIALLY DEWPOINT OBSERVATIONS. SCZ027-030-031-034>040-042>050-260100- ...SOUTHEAST SOUTH CAROLINA... CITY SKY/WX TMP DP RH WIND PRES REMARKS N CHARLESTON PTCLDY 78 58 49 S10 30.17S 6HR MIN TEMP: 78; 6HR MAX TEMP: 89; WATERFRONT PRK N/A 79 65 62 S8 30.15S MOUNT PLEASANT N/A 79 66 65 S6 30.18R JOHNS ISLAND FAIR 77 66 69 S8 30.18S PINOPOLIS N/A 91 63 38 VRB2 30.09S HX 92 MONCKS CORNER FAIR 77 55 47 S6 30.17R SUMMERVILLE FAIR 81 63 54 CALM 30.18R BEAUFORT MCAS CLEAR 79 63 57 S5 30.18R 6HR MIN TEMP: 79; 6HR MAX TEMP: 87; BEAUFORT ARPT FAIR 77 63 61 S7 30.18R HILTON HEAD IS CLEAR 79 68 69 S7 30.20S WALTERBORO CLEAR 82 61 47 S6 30.18R ALLENDALE FAIR 82 59 44 CALM 30.15S ...SOUTHERN MIDLANDS AND PEE DEE... CITY SKY/WX TMP DP RH WIND PRES REMARKS GEORGETOWN FAIR 75 61 60 S7 30.19R KINGSTREE FAIR 82 57 42 CALM 30.16R ORANGEBURG CLEAR 82 60 47 CALM 30.16S 6HR MIN TEMP: 82; 6HR MAX TEMP: 89; BARNWELL FAIR 86 61 42 CALM 30.16S AIKEN FAIR 79 54 41 S3 30.20S MANNING FAIR 77 61 57 CALM 30.16R COLUMBIA PTCLDY 85 55 35 S5 30.14S 6HR MIN TEMP: 85; 6HR MAX TEMP: 91; SUMTER CLEAR 82 61 49 S5 30.13S 6HR MIN TEMP: 82; 6HR MAX TEMP: 88; FLORENCE CLEAR 83 58 42 SW5 30.15R 6HR MIN TEMP: 83; 6HR MAX TEMP: 89; MYRTLE BEACH CLEAR 77 64 65 S14 30.20 N MYRTLE BEACH CLEAR 75 69 81 S9 30.18R 6HR MIN TEMP: 75; 6HR MAX TEMP: 81; $$ GAZ063-065-086>088-099>101-113>116-118-119-134>141-150-260100- ...SOUTHEAST GEORGIA... CITY SKY/WX TMP DP RH WIND PRES REMARKS SAVANNAH ARPT PTCLDY 79 61 53 S10 30.18R 6HR MIN TEMP: 79; 6HR MAX TEMP: 88; HUNTER AAF CLEAR 78 65 64 S6 30.16R 6HR MIN TEMP: 78; 6HR MAX TEMP: 85; FORT STEWART CLEAR 81 59 47 SE3 30.15R 6HR MIN TEMP: 81; 6HR MAX TEMP: 88; STATESBORO PTCLDY 84 64 52 CALM 30.16R SYLVANIA CLEAR 83 64 54 SE5 30.17S CLAXTON FAIR 82 65 55 E3 30.16R ...CSRA...CENTRAL AND FAR SOUTHEAST GEORGIA... CITY SKY/WX TMP DP RH WIND PRES REMARKS THOMSON CLEAR 85 62 45 CALM 30.20S AUGUSTA-BUSH CLEAR 80 63 55 S3 30.14S 6HR MIN TEMP: 80; 6HR MAX TEMP: 89; AUGUSTA-DANIEL CLEAR 85 55 35 S7 30.16S SWAINSBORO FAIR 82 55 39 CALM 30.16S VIDALIA CLEAR 82 59 44 CALM 30.16S EASTMAN FAIR 83 62 49 CALM 30.18R HAZLEHURST FAIR 85 54 33 CALM 30.15R ALMA CLEAR 83 60 45 SE7 30.15S 6HR MIN TEMP: 83; 6HR MAX TEMP: 89; WAYCROSS CLEAR 82 59 46 S9 30.15S JESUP FAIR 77 54 44 S3 30.17R BAXLEY FAIR 84 59 42 SE3 30.15R BRUNSWICK CLEAR 82 64 54 SE6 30.19S SAINT SIMONS CLEAR 78 65 63 S6 30.18S 6HR MIN TEMP: 78; 6HR MAX TEMP: 83; $$ SCZ027-028-034-036>038-045-046-048>050-GAZ119-141-260100- ...LAKE AND SUPPLEMENTAL COASTAL OBSERVATIONS... STATION/POSITION TIME TEMP WIND PRES WAVE SWELL AIR SEA DIR/SP/G HT/PER HT/PER/DIR (UTC) (F) (DEG/KT/KT) (MB) (FT/S) (FT/S/D) WINYAH BAY NOT AVBL LAKE MURRAY 2300 89 CALM 1020.3F ACE BASIN NERRS NOT AVBL FORT PULASKI 2300 77 1022.2F SAPELO ISLAND 2300 82 160/ 8 1022.0S $$ ANZ835-935-AMZ111-154-330-350-352-354-370-450-454-472-260100- ...C-MAN AND BUOY OBSERVATIONS... STATION/POSITION TIME TEMP WIND PRES WAVE SWELL AIR SEA DIR/SP/G HT/PER HT/PER/DIR (UTC) (F) (DEG/KT/KT) (MB) (FT/S) (FT/S/D) BUOY 41004 2350 77 78 190/ 6/ 6 1021.9F 2/ 8 2/ 8 BUOY 41008 2350 78 78 150/ 8/ 10 1022.1S 2/ 9 2/ 80/ 9 FOLLY BEACH CMAN 0000 76 180/ 11/ 12 1022.3R CAPERS NEARSHORE 2308 77 76 200/ 12/ 16 1021.7F FRIPP NEARSHORE 2308 77 78 190/ 12/ 14 1021.3F STATION/POSITION TIME TEMP WIND PRES WAVE SWELL AIR SEA DIR/SP/G HT/PER HT/PER/DIR (UTC) (F) (DEG/KT/KT) (MB) (FT/S) (FT/S/D) 5E ST. MARYS GA 2321 79 N/A 2/ 8 FRYING PAN BUOY 2300 78 77 180/ 10/ 12 1022.0F BUOY 41025 2350 74 72 220/ 10/ 12 1021.9F 2/ 8 2/ 90/ 8 CAPE LOOKOUT NC 0000 73 200/ 8/ 10 1021.9R BUOY 41002 2350 75 79 50/ 8/ 10 1023.2R 2/ 9 2/100/ 9 BUOY 41010 2320 76 78 50/ 10/ 14 1022.0F ST AUGUSTINE FL 0000 78 81 130/ 7/ 8 1023.2R $$

USA.gov is the U.S. government's official web portal to all federal, state and local government web resources and services.